Location: ??
(35.1891°N, 139.6355°E)
Time: 11:17:42
(UTC+00:00)

Daily predictions for brighter satellites

Satellite Brightness Start Highest point End
(mag) Time Altitude Azimuth Time Altitude Azimuth Time Altitude Azimuth
ATLAS 3B R/B 4.4 17:56:08 27° NE 17:56:08 27° NE 17:59:18 10° NE
Cosmos 2360 Rocket 3.9 18:29:29 26° NE 18:29:29 26° NE 18:32:09 10° NE
Cosmos 2219 Rocket 4.4 18:27:21 10° SSE 18:31:29 21° E 18:35:40 10° NE
Cosmos 2344 4.4 18:41:18 60° WSW 18:41:18 60° WSW 18:54:08 10° S
Cosmos 2322 Rocket 4.1 18:49:47 19° NNE 18:49:47 19° NNE 18:51:21 10° NNE
Lacrosse 5 rocket 4.2 18:46:19 13° SE 18:47:25 15° ESE 18:49:48 10° E
Cosmos 2333 Rocket 2.3 19:02:22 69° SE 19:02:44 72° ESE 19:08:29 10° NNE
NOSS 3-1 (A) 4.0 19:10:20 36° NNE 19:10:20 36° NNE 19:13:44 10° NNE
Cosmos 1844 Rocket 2.9 19:15:54 45° N 19:17:32 68° ENE 19:23:08 10° SSE
IRS-P3 Rocket 4.4 19:12:39 10° NNE 19:17:53 89° WNW 19:23:06 10° SSW
Cosmos 1072 Rocket 4.5 19:14:26 10° S 19:20:42 85° E 19:27:06 10° N
H-2A R/B 2.3 19:16:04 10° NNE 19:20:57 64° E 19:25:53 10° S
Gblst 52 Del rocket 4.5 19:22:56 50° SW 19:22:56 50° SW 19:27:55 10° SSE
COSMO-SKYMED 1 4.3 19:22:19 10° SE 19:26:07 31° ENE 19:29:56 10° N
COSMOS 2455 3.6 19:23:09 23° N 19:26:47 50° ENE 19:32:35 10° SE
Okean 1-7 Rocket 3.6 19:25:43 10° S 19:30:05 76° E 19:34:29 10° N
Cosmos 1464 Rocket 3.8 19:24:29 10° S 19:30:37 87° W 19:36:51 10° N
Milstar 3 Cent rocket 3.0 19:32:02 33° SW 19:33:21 39° S 19:40:09 10° ESE
CZ-3 Stage 3 2.3 19:34:09 33° S 19:34:09 33° S 19:35:57 10° SE
Helios 1A 3.1 19:30:51 10° SSE 19:34:55 71° ENE 19:36:02 46° N
Cosmos 2333 4.1 19:32:41 24° SW 19:36:10 69° WNW 19:41:56 10° NNE
IRS-1C 4.0 19:32:10 10° N 19:37:29 75° WNW 19:42:47 10° SSW
Cosmos 2322 4.4 19:33:07 10° S 19:38:38 55° ESE 19:44:10 10° NNE
ARGOS 4.4 19:34:45 10° NNE 19:39:51 42° E 19:44:54 10° S
Cosmos 2056 Rocket 4.1 19:37:30 14° N 19:41:59 58° ENE 19:47:10 10° SSE
ATLAS 3B R/B 3.5 19:43:26 32° NW 19:43:26 32° NW 19:49:49 10° NNE
SJ-12 4.5 19:43:50 10° NNE 19:47:48 57° E 19:51:45 10° S
BREEZE-M DEB (TANK) 3.0 19:48:12 32° NNE 19:48:26 32° NNE 19:52:17 10° E
BlueWalker 3 4.1 19:48:13 16° N 19:49:31 18° NNE 19:52:12 10° ENE
ERS-1 4.3 19:45:06 10° N 19:50:01 68° WNW 19:54:55 10° SSW
ASTRO E2 4.0 19:50:57 25° SSW 19:51:04 25° SSW 19:54:06 10° SE
Gbstr 26 Del rocket 3.3 19:51:36 47° W 19:52:38 59° SW 19:57:57 10° SSE
Cosmos 1812 Rocket 3.9 19:48:17 10° N 19:52:42 65° E 19:57:07 10° SSE
USA 281 3.2 19:47:21 10° NNE 19:53:46 58° WNW 20:00:09 10° SW
Timation 2 Rocket 4.2 19:54:44 26° NW 19:58:17 54° WSW 20:04:47 10° S
Cosmos 1758 Rocket 3.5 19:54:09 10° SSW 19:58:23 57° W 20:02:38 10° N
Cosmos 192 4.2 19:56:37 26° NNW 19:59:19 67° WSW 20:04:12 10° S
Cosmos 2034 Rocket 3.9 19:53:35 10° S 19:59:56 76° W 20:06:16 10° N
USA 215 3.2 19:53:32 10° NE 20:00:01 68° NW 20:06:28 10° WSW
ARIANE 5 R/B 2.7 19:55:39 10° N 20:00:38 47° WNW 20:05:36 10° SW
OAO 3 Rocket 4.5 19:59:03 12° SW 20:03:07 37° SSE 20:07:38 10° E
Cosmos 1371 Rocket 4.0 20:01:05 13° NNW 20:05:51 81° WSW 20:11:11 10° SSE
SL-19 R/B 4.3 20:02:14 10° N 20:07:25 47° WNW 20:12:25 10° SW
IRS-P3 4.3 20:04:01 10° N 20:09:05 46° WNW 20:14:07 10° SW
Cosmos 2360 Rocket 3.3 20:11:21 23° NW 20:11:21 23° NW 20:15:24 10° N
CZ-3 R/B 3.0 19:53:53 14° WSW 20:11:03 58° S 20:17:03 10° ESE
SKYMED 2 3.5 20:09:44 10° S 20:14:02 70° WSW 20:18:23 10° NNW
BREEZE-M DEB (TANK) 4.0 20:11:17 22° NW 20:15:01 89° SW 20:33:44 10° SE
Cosmos 2219 Rocket 2.4 20:09:41 10° SW 20:15:02 44° WNW 20:20:27 10° N
JB-3 4.5 20:12:02 10° SSE 20:16:06 79° ENE 20:20:09 10° N
VEP-3 4.3 20:11:06 10° SW 20:17:00 28° S 20:22:13 10° ESE
Geosat 4.5 20:12:59 10° N 20:17:35 37° WNW 20:22:10 10° SW
Cosmos 1844 4.2 20:16:33 20° NW 20:19:51 38° WSW 20:24:56 10° S
Spot 4 Rocket 3.9 20:16:46 10° N 20:21:55 78° WNW 20:27:02 10° SSW
Cosmos 1048 Rocket 3.9 20:18:12 10° SSW 20:23:23 79° WNW 20:28:32 10° NNE
Cosmos 1602 Rocket 4.4 20:21:31 10° SW 20:25:20 28° WNW 20:29:09 10° NNW
Cosmos 1420 Rocket 4.3 20:20:40 12° NNW 20:25:21 48° WSW 20:30:25 10° S
Lacrosse 5 rocket 1.5 20:21:33 10° SW 20:25:34 53° NW 20:29:49 10° NNE
Cosmos 1933 3.2 20:24:06 10° N 20:28:04 90° E 20:32:00 10° S
FengYun 1-2 T 4.4 20:24:37 10° N 20:30:01 52° WNW 20:35:22 10° SSW
Cosmos 2322 Rocket 4.1 20:31:40 11° NW 20:31:40 11° NW 20:32:27 10° NNW
Cosmos 1624 Rocket 4.2 20:25:37 10° NNW 20:30:34 47° WSW 20:35:32 10° S
Chandra Rocket (1) 4.2 20:30:45 10° SW 20:33:56 22° S 20:40:28 10° SE
Cosmos 2026 Rocket 4.0 20:28:28 10° N 20:34:52 87° W 20:41:11 10° S
Atlas Centaur 2 4.5 20:34:32 10° SSE 20:34:56 10° SSE 20:35:21 10° SE
CZ-2D R/B 3.0 20:32:51 10° N 20:36:30 80° WNW 20:40:08 10° SSW
SMAP 4.3 20:32:11 10° NNE 20:36:39 45° E 20:41:05 10° S
Cosmos-2242 4.1 20:37:33 11° NW 20:40:43 23° W 20:44:04 10° SW
Cosmos 2195 Rocket 4.5 20:34:46 10° NNW 20:40:52 64° W 20:46:52 10° S
Cosmos 1953 Rocket 3.5 20:37:05 10° S 20:41:30 78° W 20:45:59 10° N
Cosmos 1862 3.2 20:40:50 10° SSW 20:44:36 60° W 20:48:25 10° N
SL-08 R/B 3.7 20:41:54 10° S 20:46:22 41° W 20:50:48 10° NNW
COSMOS 2428 2.9 20:41:15 10° SW 20:46:43 48° WNW 20:52:13 10° N
CZ-2C R/B 2.6 20:43:30 10° N 20:47:16 85° WNW 20:51:04 10° SSW
Cosmos 2333 Rocket 3.7 20:44:33 11° W 20:47:35 15° NW 20:50:55 10° NNW
Cosmos 1092 Rocket 4.0 20:41:52 10° NNW 20:48:00 66° W 20:54:11 10° S
USA 229 DEB 4.1 20:43:18 10° WSW 20:48:50 35° NW 20:54:50 10° NNE
USA 229 4.1 20:43:20 10° WSW 20:48:54 35° NW 20:54:54 10° NNE
SJ-11-01 4.3 20:45:30 10° N 20:50:07 63° WNW 20:54:44 10° SSW
Cosmos 2221 2.4 20:46:40 10° N 20:50:55 84° W 20:55:10 10° S
Cosmos 1634 Rocket 4.0 20:45:23 10° SSW 20:51:25 57° W 20:57:32 10° N
Cosmos 1980 4.0 20:46:34 10° SSW 20:52:11 74° ESE 20:57:51 10° NNE
Helios 1B rocket 2.5 20:50:34 10° N 20:54:24 49° WNW 20:58:14 10° SSW
Cosmos 1812 4.4 20:53:16 10° WNW 20:54:52 13° W 20:56:36 10° WSW
Cosmos 2285 Rocket 4.0 20:50:00 10° SSW 20:56:19 81° WNW 21:02:42 10° NNE
CZ-4B R/B 4.3 20:52:51 10° NNE 20:56:49 67° ESE 21:00:55 10° S
H-2A R/B 3.6 20:57:47 10° NW 20:59:46 12° WNW 21:01:44 10° W
Cosmos 1844 Rocket 4.4 20:58:11 10° WNW 21:00:43 13° W 21:03:16 10° SW
COSMO-SKYMED 1 4.0 20:59:13 10° SW 21:02:17 19° W 21:05:22 10° NW
NOSS 0 Rocket 4.0 20:57:29 10° SSW 21:03:40 66° WNW 21:09:54 10° NNE
Meteor 1-31 Rocket 2.8 21:00:42 10° NNE 21:04:29 86° ESE 21:08:16 10° SSW
SeaSat 1 3.9 21:01:26 10° SE 21:05:53 36° ENE 21:10:21 10° N
CORIOLIS 4.3 21:01:25 10° NNE 21:06:52 86° E 21:12:19 10° SSW
